^^
Datos históricos de la estación: Murcia-Puente Tocinos
Diario Informe para Febrero 2, 2019 Unidades:  Métrico    Inglés   Ambas
Diario Semanal Mensual Anual Configurable
  Máximo: Mínimo: Media:
Temperatura: 14.4 °C 10.1 °C 12.3 °C
Punto de rocio: 1.2 °C -5.3 °C -2.2 °C
Humedad: 51% 26% 37%
Velocidad viento: 37.0km/h 10.3km/h 23.9km/h
Racha viento: 62.8km/h - -
Viento- - West
Presión: 1014.7 hPa 997.9 hPa -
Precipitación: 0.0 mm    
Historical Graphs
 
 
Tabla de datos para Febrero 2, 2019
Hora Temperatura Punto de rocio Presión Viento Velocidad viento Racha viento Humedad Intensidad lluvia(por hora) Nubes
00:00 12.8 °C 0.2 °C 998.2 hPa SW 19.3 km/h 32.2 km/h 42% 0.0 mm CLR
00:05 12.9 °C -0.4 °C 997.9 hPa WSW 19.0 km/h 35.2 km/h 40% 0.0 mm CLR
00:10 12.9 °C -0.4 °C 997.9 hPa WSW 20.9 km/h 32.3 km/h 40% 0.0 mm CLR
00:15 12.8 °C -0.5 °C 997.9 hPa WSW 20.9 km/h 28.2 km/h 40% 0.0 mm CLR
00:20 12.8 °C -0.5 °C 998.0 hPa SSW 20.9 km/h 27.8 km/h 40% 0.0 mm CLR
00:25 12.7 °C -0.6 °C 998.0 hPa SSW 20.9 km/h 33.3 km/h 40% 0.0 mm CLR
00:30 12.7 °C -0.9 °C 998.0 hPa WSW 19.8 km/h 31.5 km/h 39% 0.0 mm CLR
00:35 12.6 °C -1.0 °C 998.0 hPa West 19.8 km/h 29.6 km/h 39% 0.0 mm CLR
00:40 12.6 °C -1.0 °C 998.0 hPa WSW 21.7 km/h 29.6 km/h 39% 0.0 mm CLR
00:45 12.6 °C -1.0 °C 998.0 hPa WSW 21.7 km/h 35.2 km/h 39% 0.0 mm CLR
00:50 12.5 °C -1.1 °C 998.0 hPa WSW 22.0 km/h 30.6 km/h 39% 0.0 mm CLR
00:55 12.4 °C -0.8 °C 998.0 hPa WSW 22.5 km/h 33.8 km/h 40% 0.0 mm CLR
01:00 12.4 °C -0.8 °C 998.0 hPa WSW 20.9 km/h 33.8 km/h 40% 0.0 mm CLR
01:05 12.3 °C -0.9 °C 998.1 hPa WSW 20.1 km/h 27.8 km/h 40% 0.0 mm CLR
01:10 12.3 °C -0.6 °C 998.1 hPa SW 19.0 km/h 33.3 km/h 41% 0.0 mm CLR
01:15 12.2 °C -0.7 °C 998.1 hPa SW 19.0 km/h 25.9 km/h 41% 0.0 mm CLR
01:20 12.1 °C -0.1 °C 998.2 hPa WSW 19.8 km/h 37.0 km/h 43% 0.0 mm CLR
01:25 12.1 °C -0.1 °C 998.2 hPa WSW 19.8 km/h 37.0 km/h 43% 0.0 mm CLR
01:30 12.1 °C -0.1 °C 998.2 hPa SW 21.7 km/h 27.8 km/h 43% 0.0 mm CLR
01:35 11.9 °C 0.0 °C 998.3 hPa SW 21.7 km/h 28.6 km/h 44% 0.0 mm CLR
01:40 11.8 °C 0.2 °C 998.3 hPa SW 16.4 km/h 24.1 km/h 45% 0.0 mm CLR
01:45 11.6 °C 0.3 °C 998.3 hPa SSW 16.4 km/h 27.8 km/h 46% 0.0 mm CLR
01:50 11.5 °C 0.6 °C 998.6 hPa SW 17.2 km/h 35.2 km/h 47% 0.0 mm CLR
01:55 11.4 °C 0.8 °C 998.6 hPa WSW 17.2 km/h 33.3 km/h 48% 0.0 mm CLR
02:00 11.4 °C 1.1 °C 998.6 hPa SW 20.9 km/h 33.8 km/h 49% 0.0 mm CLR
02:05 11.3 °C 0.9 °C 998.8 hPa SW 19.8 km/h 25.9 km/h 49% 0.0 mm CLR
02:10 11.3 °C 1.2 °C 998.8 hPa SSW 18.0 km/h 25.9 km/h 50% 0.0 mm CLR
02:15 11.2 °C 1.2 °C 998.8 hPa SW 18.0 km/h 27.8 km/h 50% 0.0 mm CLR
02:20 11.2 °C 1.2 °C 998.6 hPa SW 18.3 km/h 24.1 km/h 50% 0.0 mm CLR
02:25 11.1 °C 1.1 °C 998.6 hPa SW 18.3 km/h 35.2 km/h 50% 0.0 mm CLR
02:30 11.1 °C 1.1 °C 998.6 hPa SSW 18.0 km/h 27.8 km/h 50% 0.0 mm CLR
02:35 11.1 °C 1.1 °C 999.0 hPa SSW 18.0 km/h 25.9 km/h 50% 0.0 mm CLR
02:40 11.1 °C 1.1 °C 999.0 hPa SW 17.2 km/h 25.9 km/h 50% 0.0 mm CLR
02:45 10.9 °C 1.2 °C 999.0 hPa SW 17.2 km/h 24.1 km/h 51% 0.0 mm CLR
02:50 10.9 °C 1.2 °C 999.3 hPa SSW 15.6 km/h 27.8 km/h 51% 0.0 mm CLR
02:55 11.0 °C 0.9 °C 999.3 hPa SSW 15.6 km/h 25.9 km/h 50% 0.0 mm CLR
03:00 11.1 °C 1.1 °C 999.3 hPa SW 19.3 km/h 33.8 km/h 50% 0.0 mm CLR
03:05 11.1 °C 0.8 °C 999.3 hPa SSW 18.0 km/h 35.2 km/h 49% 0.0 mm CLR
03:10 11.2 °C 0.9 °C 999.3 hPa SW 16.1 km/h 35.4 km/h 49% 0.0 mm CLR
03:15 11.3 °C 0.7 °C 999.3 hPa West 16.1 km/h 38.9 km/h 48% 0.0 mm CLR
03:20 11.2 °C 0.6 °C 999.2 hPa WSW 23.3 km/h 27.8 km/h 48% 0.0 mm CLR
03:25 11.2 °C 0.6 °C 999.2 hPa West 23.3 km/h 34.6 km/h 48% 0.0 mm CLR
03:30 11.3 °C 0.7 °C 999.2 hPa SW 19.8 km/h 24.1 km/h 48% 0.0 mm CLR
03:35 11.3 °C 0.4 °C 999.2 hPa SW 19.8 km/h 31.7 km/h 47% 0.0 mm CLR
03:40 11.3 °C 0.4 °C 999.2 hPa SW 20.1 km/h 29.6 km/h 47% 0.0 mm CLR
03:45 11.2 °C 0.3 °C 999.2 hPa WSW 20.1 km/h 27.8 km/h 47% 0.0 mm CLR
03:50 11.2 °C 0.0 °C 999.3 hPa WSW 19.8 km/h 33.3 km/h 46% 0.0 mm CLR
03:55 11.4 °C -0.4 °C 999.3 hPa SW 19.8 km/h 42.6 km/h 44% 0.0 mm CLR
04:00 11.6 °C -0.3 °C 999.3 hPa WSW 24.1 km/h 43.4 km/h 44% 0.0 mm CLR
04:05 11.8 °C -0.4 °C 999.5 hPa West 24.5 km/h 46.3 km/h 43% 0.0 mm CLR
04:10 11.8 °C -0.7 °C 999.5 hPa West 27.4 km/h 35.9 km/h 42% 0.0 mm CLR
04:15 11.8 °C -0.7 °C 999.5 hPa WSW 27.4 km/h 38.9 km/h 42% 0.0 mm CLR
04:20 11.8 °C -0.7 °C 999.8 hPa West 23.7 km/h 27.8 km/h 42% 0.0 mm CLR
04:25 11.7 °C -0.8 °C 999.8 hPa West 23.7 km/h 31.5 km/h 42% 0.0 mm CLR
04:30 11.6 °C -0.6 °C 999.8 hPa WSW 19.8 km/h 33.3 km/h 43% 0.0 mm CLR
04:35 11.5 °C -0.7 °C 999.8 hPa WSW 19.8 km/h 35.2 km/h 43% 0.0 mm CLR
04:40 11.4 °C -0.8 °C 999.8 hPa WSW 20.9 km/h 31.5 km/h 43% 0.0 mm CLR
04:45 11.4 °C -0.8 °C 999.8 hPa WSW 20.9 km/h 38.9 km/h 43% 0.0 mm CLR
04:50 11.5 °C -0.7 °C 999.7 hPa WSW 23.7 km/h 33.3 km/h 43% 0.0 mm CLR
04:55 11.6 °C -0.9 °C 999.7 hPa West 23.7 km/h 50.0 km/h 42% 0.0 mm CLR
05:00 11.6 °C -0.9 °C 999.7 hPa WSW 29.0 km/h 49.9 km/h 42% 0.0 mm CLR
05:05 11.6 °C -0.9 °C 999.4 hPa West 29.1 km/h 44.4 km/h 42% 0.0 mm CLR
05:10 11.6 °C -0.9 °C 999.4 hPa NW 27.0 km/h 35.2 km/h 42% 0.0 mm CLR
05:15 11.6 °C -0.9 °C 999.4 hPa SW 27.0 km/h 37.0 km/h 42% 0.0 mm CLR
05:20 11.6 °C -1.2 °C 999.4 hPa WSW 26.2 km/h 44.4 km/h 41% 0.0 mm CLR
05:25 11.5 °C -1.3 °C 999.4 hPa West 26.2 km/h 44.9 km/h 41% 0.0 mm CLR
05:30 11.5 °C -1.0 °C 999.4 hPa WSW 26.2 km/h 33.3 km/h 42% 0.0 mm CLR
05:35 11.4 °C -1.1 °C 999.3 hPa SW 26.2 km/h 38.9 km/h 42% 0.0 mm CLR
05:40 11.5 °C -1.3 °C 999.3 hPa SW 23.7 km/h 29.6 km/h 41% 0.0 mm CLR
05:45 11.4 °C -1.1 °C 999.3 hPa WSW 23.7 km/h 24.1 km/h 42% 0.0 mm CLR
05:50 11.3 °C -1.2 °C 999.5 hPa WSW 20.9 km/h 29.6 km/h 42% 0.0 mm CLR
05:55 11.3 °C -1.2 °C 999.5 hPa WNW 20.9 km/h 38.9 km/h 42% 0.0 mm CLR
06:00 11.3 °C -1.2 °C 999.5 hPa WSW 22.5 km/h 40.2 km/h 42% 0.0 mm CLR
06:05 11.3 °C -1.2 °C 999.6 hPa SW 21.7 km/h 40.7 km/h 42% 0.0 mm CLR
06:10 11.3 °C -1.2 °C 999.6 hPa West 21.7 km/h 22.2 km/h 42% 0.0 mm CLR
06:15 11.3 °C -1.2 °C 999.6 hPa SSW 21.7 km/h 16.7 km/h 42% 0.0 mm CLR
06:20 11.3 °C -1.2 °C 999.6 hPa SW 15.6 km/h 20.4 km/h 42% 0.0 mm CLR
06:25 11.4 °C -1.1 °C 999.6 hPa West 15.6 km/h 33.3 km/h 42% 0.0 mm CLR
06:30 11.6 °C -1.2 °C 999.6 hPa SW 17.2 km/h 38.9 km/h 41% 0.0 mm CLR
06:35 11.6 °C -1.2 °C 999.7 hPa SW 17.2 km/h 40.7 km/h 41% 0.0 mm CLR
06:40 11.6 °C -1.2 °C 999.7 hPa South 21.7 km/h 25.9 km/h 41% 0.0 mm CLR
06:45 11.5 °C -1.3 °C 999.7 hPa South 21.7 km/h 31.5 km/h 41% 0.0 mm CLR
06:50 11.6 °C -1.2 °C 999.7 hPa WSW 17.2 km/h 40.7 km/h 41% 0.0 mm CLR
06:55 11.6 °C -1.2 °C 999.7 hPa WSW 17.2 km/h 27.8 km/h 41% 0.0 mm CLR
07:00 11.6 °C -1.2 °C 999.7 hPa WSW 20.9 km/h 41.8 km/h 41% 0.0 mm CLR
07:05 11.6 °C -1.2 °C 999.8 hPa WNW 20.9 km/h 35.2 km/h 41% 0.0 mm CLR
07:10 11.5 °C -1.0 °C 999.8 hPa West 20.9 km/h 29.6 km/h 42% 0.0 mm CLR
07:15 11.4 °C -1.1 °C 999.8 hPa WSW 20.9 km/h 40.7 km/h 42% 0.0 mm CLR
07:20 11.4 °C -0.8 °C 1000.0 hPa WSW 21.7 km/h 35.2 km/h 43% 0.0 mm CLR
07:25 11.4 °C -0.8 °C 1000.0 hPa West 21.7 km/h 33.3 km/h 43% 0.0 mm CLR
07:30 11.3 °C -0.6 °C 1000.0 hPa WNW 22.5 km/h 37.0 km/h 44% 0.0 mm CLR
07:35 11.2 °C -0.6 °C 1000.1 hPa NW 22.5 km/h 37.0 km/h 44% 0.0 mm CLR
07:40 11.2 °C -0.3 °C 1000.1 hPa West 20.9 km/h 33.3 km/h 45% 0.0 mm CLR
07:45 11.2 °C -0.3 °C 1000.1 hPa West 20.9 km/h 40.7 km/h 45% 0.0 mm CLR
07:50 11.2 °C -0.3 °C 1000.5 hPa WSW 23.7 km/h 22.2 km/h 45% 0.0 mm CLR
07:55 11.1 °C -0.1 °C 1000.5 hPa NNE 23.7 km/h 25.9 km/h 46% 0.0 mm CLR
08:00 11.1 °C -0.1 °C 1000.5 hPa West 16.1 km/h 40.2 km/h 46% 0.0 mm CLR
08:05 11.1 °C -0.4 °C 1000.8 hPa SSW 16.1 km/h 30.6 km/h 45% 0.0 mm CLR
08:10 11.2 °C -0.3 °C 1000.8 hPa WSW 16.4 km/h 27.8 km/h 45% 0.0 mm CLR
08:15 11.2 °C -0.3 °C 1000.8 hPa WSW 16.4 km/h 20.4 km/h 45% 0.0 mm CLR
08:20 11.2 °C -0.3 °C 1001.4 hPa WSW 14.8 km/h 19.0 km/h 45% 0.0 mm FEW
08:25 11.3 °C -0.6 °C 1001.4 hPa WSW 14.8 km/h 25.9 km/h 44% 0.0 mm FEW
08:30 11.2 °C -0.3 °C 1001.4 hPa West 19.8 km/h 13.0 km/h 45% 0.0 mm FEW
08:35 11.1 °C -0.4 °C 1001.5 hPa SW 19.8 km/h 13.0 km/h 45% 0.0 mm FEW
08:40 11.1 °C -0.4 °C 1001.5 hPa SW 10.3 km/h 18.5 km/h 45% 0.0 mm FEW
08:45 11.0 °C -0.5 °C 1001.5 hPa WSW 10.3 km/h 16.7 km/h 45% 0.0 mm FEW
08:50 10.9 °C -0.6 °C 1001.7 hPa SW 11.9 km/h 20.4 km/h 45% 0.0 mm FEW
08:55 11.0 °C -0.5 °C 1001.7 hPa SW 11.9 km/h 22.2 km/h 45% 0.0 mm FEW
09:00 11.1 °C -0.7 °C 1001.7 hPa WSW 12.9 km/h 37.0 km/h 44% 0.0 mm FEW
09:05 11.4 °C -0.8 °C 1002.0 hPa West 13.7 km/h 39.9 km/h 43% 0.0 mm FEW
09:10 11.7 °C -0.5 °C 1002.0 hPa WSW 20.9 km/h 40.7 km/h 43% 0.0 mm FEW
09:15 11.7 °C -0.5 °C 1002.0 hPa West 20.9 km/h 50.4 km/h 43% 0.0 mm FEW
09:20 11.8 °C -0.7 °C 1002.2 hPa NW 22.5 km/h 25.9 km/h 42% 0.0 mm FEW
09:25 11.9 °C -0.6 °C 1002.2 hPa West 22.5 km/h 35.2 km/h 42% 0.0 mm FEW
09:30 11.9 °C -0.6 °C 1002.2 hPa West 21.7 km/h 31.5 km/h 42% 0.0 mm FEW
09:35 12.0 °C -0.6 °C 1002.7 hPa WNW 21.7 km/h 31.5 km/h 42% 0.0 mm FEW
09:40 12.1 °C -0.4 °C 1002.7 hPa NNW 23.7 km/h 46.3 km/h 42% 0.0 mm FEW
09:45 12.1 °C -0.4 °C 1002.7 hPa SW 23.7 km/h 59.2 km/h 42% 0.0 mm FEW
09:50 12.0 °C -0.9 °C 1002.9 hPa WNW 32.3 km/h 42.6 km/h 41% 0.0 mm FEW
09:55 12.1 °C -0.8 °C 1002.9 hPa NW 32.3 km/h 31.5 km/h 41% 0.0 mm FEW
10:00 12.1 °C -0.8 °C 1002.9 hPa WNW 24.1 km/h 51.5 km/h 41% 0.0 mm FEW
10:05 12.2 °C -1.4 °C 1003.0 hPa West 24.5 km/h 51.8 km/h 39% 0.0 mm FEW
10:10 12.3 °C -0.9 °C 1003.0 hPa WSW 28.2 km/h 38.9 km/h 40% 0.0 mm FEW
10:15 12.2 °C -1.0 °C 1003.0 hPa West 28.2 km/h 35.2 km/h 40% 0.0 mm FEW
10:20 12.2 °C -1.4 °C 1003.6 hPa West 22.0 km/h 48.1 km/h 39% 0.0 mm FEW
10:25 12.2 °C -1.4 °C 1003.6 hPa West 22.0 km/h 38.9 km/h 39% 0.0 mm FEW
10:30 12.2 °C -1.4 °C 1003.6 hPa SSW 23.7 km/h 33.3 km/h 39% 0.0 mm FEW
10:35 12.2 °C -1.4 °C 1004.3 hPa WSW 23.7 km/h 37.0 km/h 39% 0.0 mm FEW
10:40 12.3 °C -1.6 °C 1004.3 hPa NW 23.3 km/h 44.4 km/h 38% 0.0 mm FEW
10:45 12.3 °C -1.6 °C 1004.3 hPa NNE 23.3 km/h 29.6 km/h 38% 0.0 mm FEW
10:50 12.3 °C -1.6 °C 1005.0 hPa West 22.5 km/h 50.0 km/h 38% 0.0 mm FEW
10:55 12.3 °C -1.6 °C 1005.0 hPa West 22.5 km/h 46.3 km/h 38% 0.0 mm FEW
11:00 12.5 °C -1.8 °C 1005.0 hPa West 25.7 km/h 51.5 km/h 37% 0.0 mm FEW
11:05 12.6 °C -1.7 °C 1005.1 hPa SW 26.2 km/h 47.3 km/h 37% 0.0 mm FEW
11:10 12.7 °C -1.6 °C 1005.1 hPa WNW 29.8 km/h 33.3 km/h 37% 0.0 mm FEW
11:15 12.8 °C -1.6 °C 1005.1 hPa West 29.8 km/h 51.8 km/h 37% 0.0 mm FEW
11:20 12.9 °C -1.8 °C 1005.0 hPa WNW 27.4 km/h 44.4 km/h 36% 0.0 mm FEW
11:25 13.0 °C -1.7 °C 1005.0 hPa West 27.4 km/h 38.9 km/h 36% 0.0 mm FEW
11:30 13.1 °C -1.7 °C 1005.0 hPa WNW 23.3 km/h 37.0 km/h 36% 0.0 mm FEW
11:35 13.3 °C -1.5 °C 1005.0 hPa WSW 23.3 km/h 36.2 km/h 36% 0.0 mm FEW
11:40 13.3 °C -1.8 °C 1005.0 hPa NW 23.3 km/h 44.4 km/h 35% 0.0 mm FEW
11:45 13.3 °C -1.8 °C 1005.0 hPa West 23.3 km/h 46.3 km/h 35% 0.0 mm FEW
11:50 13.4 °C -1.8 °C 1005.1 hPa West 27.0 km/h 37.0 km/h 35% 0.0 mm FEW
11:55 13.4 °C -2.2 °C 1005.1 hPa West 27.0 km/h 52.1 km/h 34% 0.0 mm FEW
12:00 13.4 °C -1.8 °C 1005.1 hPa West 27.4 km/h 51.5 km/h 35% 0.0 mm FEW
12:05 13.3 °C -2.3 °C 1005.1 hPa WNW 27.0 km/h 57.4 km/h 34% 0.0 mm FEW
12:10 13.3 °C -2.3 °C 1005.1 hPa WNW 30.9 km/h 38.9 km/h 34% 0.0 mm FEW
12:15 13.4 °C -2.6 °C 1005.1 hPa WNW 30.9 km/h 38.9 km/h 33% 0.0 mm FEW
12:20 13.6 °C -2.4 °C 1004.8 hPa West 28.6 km/h 25.9 km/h 33% 0.0 mm FEW
12:25 13.6 °C -2.4 °C 1004.8 hPa WNW 28.6 km/h 33.3 km/h 33% 0.0 mm FEW
12:30 13.7 °C -2.7 °C 1004.8 hPa WNW 25.6 km/h 42.6 km/h 32% 0.0 mm FEW
12:35 13.7 °C -2.7 °C 1004.7 hPa WNW 25.6 km/h 57.4 km/h 32% 0.0 mm FEW
12:40 13.8 °C -2.6 °C 1004.7 hPa West 31.7 km/h 48.1 km/h 32% 0.0 mm FEW
12:45 13.7 °C -2.3 °C 1004.7 hPa West 31.7 km/h 42.6 km/h 33% 0.0 mm FEW
12:50 13.8 °C -2.6 °C 1004.6 hPa NW 32.3 km/h 44.4 km/h 32% 0.0 mm FEW
12:55 14.1 °C -2.4 °C 1004.6 hPa WNW 32.3 km/h 38.9 km/h 32% 0.0 mm FEW
13:00 14.1 °C -2.4 °C 1004.6 hPa WNW 27.4 km/h 62.8 km/h 32% 0.0 mm FEW
13:05 14.0 °C -2.4 °C 1004.6 hPa WNW 27.0 km/h 38.1 km/h 32% 0.0 mm FEW
13:10 14.2 °C -2.3 °C 1004.6 hPa West 30.9 km/h 38.9 km/h 32% 0.0 mm FEW
13:15 14.4 °C -2.1 °C 1004.6 hPa NW 30.9 km/h 40.7 km/h 32% 0.0 mm FEW
13:20 14.2 °C -2.3 °C 1004.9 hPa West 26.2 km/h 55.5 km/h 32% 0.0 mm FEW
13:25 14.0 °C -2.4 °C 1004.9 hPa NW 26.2 km/h 57.4 km/h 32% 0.0 mm FEW
13:30 14.0 °C -2.4 °C 1004.9 hPa WNW 27.0 km/h 57.4 km/h 32% 0.0 mm FEW
13:35 14.2 °C -2.7 °C 1005.1 hPa West 27.0 km/h 51.8 km/h 31% 0.0 mm FEW
13:40 14.2 °C -2.3 °C 1005.1 hPa WNW 29.1 km/h 42.6 km/h 32% 0.0 mm FEW
13:45 14.4 °C -2.6 °C 1005.1 hPa WNW 29.1 km/h 51.8 km/h 31% 0.0 mm
13:50 14.2 °C -2.7 °C 1005.2 hPa WNW 28.6 km/h 56.5 km/h 31% 0.0 mm CLR
13:55 14.3 °C -2.6 °C 1005.2 hPa WNW 28.6 km/h 51.8 km/h 31% 0.0 mm CLR
14:00 14.2 °C -2.7 °C 1005.2 hPa WNW 35.4 km/h 59.5 km/h 31% 0.0 mm CLR
14:05 14.2 °C -2.7 °C 1005.6 hPa WNW 35.9 km/h 31.5 km/h 31% 0.0 mm CLR
14:10 14.4 °C -2.6 °C 1005.6 hPa NW 28.6 km/h 37.0 km/h 31% 0.0 mm CLR
14:15 14.4 °C -3.0 °C 1005.6 hPa WNW 28.6 km/h 48.1 km/h 30% 0.0 mm CLR
14:20 14.1 °C -3.2 °C 1005.7 hPa NW 27.0 km/h 55.5 km/h 30% 0.0 mm CLR
14:25 14.1 °C -3.2 °C 1005.7 hPa WNW 27.0 km/h 47.8 km/h 30% 0.0 mm CLR
14:30 14.1 °C -3.2 °C 1005.7 hPa WNW 32.8 km/h 35.2 km/h 30% 0.0 mm CLR
14:35 13.8 °C -3.5 °C 1006.1 hPa WNW 32.8 km/h 55.5 km/h 30% 0.0 mm CLR
14:40 13.9 °C -3.4 °C 1006.1 hPa WNW 32.3 km/h 44.9 km/h 30% 0.0 mm CLR
14:45 14.0 °C -3.3 °C 1006.1 hPa WNW 32.3 km/h 51.8 km/h 30% 0.0 mm CLR
14:50 14.2 °C -2.7 °C 1006.2 hPa NW 29.1 km/h 37.0 km/h 31% 0.0 mm CLR
14:55 14.1 °C -3.2 °C 1006.2 hPa West 29.1 km/h 51.8 km/h 30% 0.0 mm CLR
15:00 13.9 °C -3.4 °C 1006.2 hPa WNW 33.8 km/h 62.8 km/h 30% 0.0 mm CLR
15:05 13.9 °C -3.4 °C 1006.6 hPa WNW 33.5 km/h 55.5 km/h 30% 0.0 mm CLR
15:10 14.2 °C -3.2 °C 1006.6 hPa West 35.2 km/h 61.1 km/h 30% 0.0 mm CLR
15:15 14.2 °C -3.2 °C 1006.6 hPa WNW 35.2 km/h 48.1 km/h 30% 0.0 mm CLR
15:20 14.0 °C -3.3 °C 1006.9 hPa NW 34.6 km/h 50.0 km/h 30% 0.0 mm CLR
15:25 13.8 °C -3.5 °C 1006.9 hPa NW 34.6 km/h 61.1 km/h 30% 0.0 mm CLR
15:30 13.7 °C -3.6 °C 1006.9 hPa West 37.0 km/h 50.0 km/h 30% 0.0 mm CLR
15:35 13.8 °C -3.5 °C 1007.2 hPa NW 37.0 km/h 38.9 km/h 30% 0.0 mm CLR
15:40 13.9 °C -3.4 °C 1007.2 hPa WNW 32.8 km/h 44.9 km/h 30% 0.0 mm CLR
15:45 13.9 °C -3.9 °C 1007.2 hPa NW 32.8 km/h 55.5 km/h 29% 0.0 mm CLR
15:50 13.8 °C -3.9 °C 1007.6 hPa WNW 34.3 km/h 55.5 km/h 29% 0.0 mm CLR
15:55 13.9 °C -3.9 °C 1007.6 hPa West 34.3 km/h 40.7 km/h 29% 0.0 mm CLR
16:00 13.8 °C -3.9 °C 1007.6 hPa WNW 32.2 km/h 51.5 km/h 29% 0.0 mm CLR
16:05 13.8 °C -4.4 °C 1007.8 hPa WNW 31.7 km/h 38.9 km/h 28% 0.0 mm CLR
16:10 13.9 °C -4.3 °C 1007.8 hPa NW 30.6 km/h 51.8 km/h 28% 0.0 mm CLR
16:15 13.8 °C -4.4 °C 1007.8 hPa WNW 30.6 km/h 42.3 km/h 28% 0.0 mm CLR
16:20 13.8 °C -3.9 °C 1007.9 hPa NNW 28.6 km/h 46.3 km/h 29% 0.0 mm CLR
16:25 13.9 °C -3.9 °C 1007.9 hPa West 28.6 km/h 48.1 km/h 29% 0.0 mm CLR
16:30 13.9 °C -4.3 °C 1007.9 hPa NW 30.9 km/h 42.6 km/h 28% 0.0 mm CLR
16:35 14.0 °C -4.3 °C 1008.1 hPa NW 30.9 km/h 42.6 km/h 28% 0.0 mm CLR
16:40 14.0 °C -4.3 °C 1008.1 hPa WNW 32.8 km/h 53.7 km/h 28% 0.0 mm CLR
16:45 14.1 °C -4.2 °C 1008.1 hPa WNW 32.8 km/h 44.2 km/h 28% 0.0 mm CLR
16:50 13.9 °C -4.3 °C 1008.2 hPa NW 30.9 km/h 46.3 km/h 28% 0.0 mm CLR
16:55 13.8 °C -4.4 °C 1008.2 hPa WNW 30.9 km/h 55.5 km/h 28% 0.0 mm CLR
17:00 13.7 °C -4.5 °C 1008.2 hPa WNW 27.4 km/h 59.5 km/h 28% 0.0 mm CLR
17:05 13.7 °C -4.1 °C 1008.5 hPa NW 27.4 km/h 57.9 km/h 29% 0.0 mm CLR
17:10 13.7 °C -4.1 °C 1008.5 hPa NW 29.8 km/h 33.3 km/h 29% 0.0 mm CLR
17:15 13.7 °C -4.1 °C 1008.5 hPa West 29.8 km/h 35.2 km/h 29% 0.0 mm CLR
17:20 13.7 °C -4.5 °C 1008.6 hPa NW 23.3 km/h 35.2 km/h 28% 0.0 mm CLR
17:25 13.7 °C -4.5 °C 1008.6 hPa NW 23.3 km/h 38.9 km/h 28% 0.0 mm CLR
17:30 13.7 °C -4.5 °C 1008.6 hPa West 25.6 km/h 43.9 km/h 28% 0.0 mm CLR
17:35 13.9 °C -4.8 °C 1008.7 hPa West 25.6 km/h 57.4 km/h 27% 0.0 mm CLR
17:40 14.0 °C -4.7 °C 1008.7 hPa NNW 29.1 km/h 48.1 km/h 27% 0.0 mm CLR
17:45 13.9 °C -4.8 °C 1008.7 hPa WSW 29.1 km/h 50.0 km/h 27% 0.0 mm CLR
17:50 13.9 °C -5.3 °C 1009.0 hPa West 29.8 km/h 42.6 km/h 26% 0.0 mm CLR
17:55 13.9 °C -4.8 °C 1009.0 hPa WNW 29.8 km/h 24.1 km/h 27% 0.0 mm CLR
17:59 13.8 °C -4.9 °C 1009.0 hPa SW 27.0 km/h 37.0 km/h 27% 0.0 mm CLR
18:05 13.8 °C -4.9 °C 1009.6 hPa West 27.0 km/h 44.4 km/h 27% 0.0 mm CLR
18:10 13.7 °C -5.0 °C 1009.6 hPa WNW 25.1 km/h 40.7 km/h 27% 0.0 mm CLR
18:15 13.6 °C -5.1 °C 1009.6 hPa West 25.1 km/h 29.6 km/h 27% 0.0 mm CLR
18:20 13.6 °C -5.1 °C 1009.7 hPa NNW 27.4 km/h 48.1 km/h 27% 0.0 mm CLR
18:25 13.4 °C -5.2 °C 1009.7 hPa NW 27.4 km/h 40.7 km/h 27% 0.0 mm CLR
18:30 13.4 °C -5.2 °C 1009.7 hPa WNW 25.6 km/h 33.3 km/h 27% 0.0 mm CLR
18:35 13.3 °C -4.8 °C 1010.2 hPa NW 25.6 km/h 31.5 km/h 28% 0.0 mm CLR
18:40 13.3 °C -4.8 °C 1010.2 hPa WNW 22.5 km/h 42.6 km/h 28% 0.0 mm CLR
18:45 13.2 °C -4.5 °C 1010.2 hPa West 22.5 km/h 37.0 km/h 29% 0.0 mm CLR
18:50 13.2 °C -4.5 °C 1010.6 hPa NW 27.4 km/h 35.2 km/h 29% 0.0 mm CLR
18:55 13.1 °C -4.6 °C 1010.6 hPa West 27.4 km/h 33.3 km/h 29% 0.0 mm CLR
19:00 13.1 °C -4.1 °C 1010.6 hPa WNW 22.5 km/h 33.8 km/h 30% 0.0 mm CLR
19:05 13.0 °C -4.2 °C 1010.9 hPa West 22.5 km/h 31.5 km/h 30% 0.0 mm CLR
19:10 12.9 °C -4.3 °C 1010.9 hPa WNW 19.8 km/h 16.7 km/h 30% 0.0 mm CLR
19:15 12.9 °C -4.3 °C 1010.9 hPa West 19.8 km/h 35.2 km/h 30% 0.0 mm CLR
19:20 12.9 °C -4.3 °C 1011.3 hPa NW 18.3 km/h 37.0 km/h 30% 0.0 mm CLR
19:25 12.8 °C -4.4 °C 1011.3 hPa WNW 18.3 km/h 37.0 km/h 30% 0.0 mm CLR
19:30 12.7 °C -4.4 °C 1011.3 hPa NW 22.5 km/h 38.9 km/h 30% 0.0 mm CLR
19:35 12.6 °C -4.1 °C 1011.7 hPa NNW 22.5 km/h 30.6 km/h 31% 0.0 mm CLR
19:40 12.6 °C -4.1 °C 1011.7 hPa WNW 19.8 km/h 38.9 km/h 31% 0.0 mm CLR
19:45 12.6 °C -4.1 °C 1011.7 hPa WNW 19.8 km/h 35.2 km/h 31% 0.0 mm CLR
19:50 12.5 °C -3.8 °C 1012.0 hPa WNW 23.7 km/h 48.1 km/h 32% 0.0 mm CLR
19:55 12.4 °C -3.8 °C 1012.0 hPa NW 23.7 km/h 40.7 km/h 32% 0.0 mm CLR
20:00 12.4 °C -3.4 °C 1012.0 hPa WNW 24.1 km/h 33.8 km/h 33% 0.0 mm CLR
20:05 12.3 °C -3.6 °C 1012.2 hPa WNW 24.5 km/h 25.9 km/h 33% 0.0 mm CLR
20:10 12.2 °C -3.6 °C 1012.2 hPa NNW 18.0 km/h 31.5 km/h 33% 0.0 mm CLR
20:15 12.2 °C -3.2 °C 1012.2 hPa NW 18.0 km/h 35.9 km/h 34% 0.0 mm CLR
20:20 12.1 °C -3.3 °C 1012.4 hPa NW 22.0 km/h 24.1 km/h 34% 0.0 mm CLR
20:25 12.0 °C -3.4 °C 1012.4 hPa West 22.0 km/h 22.2 km/h 34% 0.0 mm CLR
20:30 11.9 °C -3.1 °C 1012.4 hPa NW 16.4 km/h 16.7 km/h 35% 0.0 mm CLR
20:35 11.9 °C -3.1 °C 1012.6 hPa WNW 16.4 km/h 25.9 km/h 35% 0.0 mm CLR
20:40 11.8 °C -3.2 °C 1012.6 hPa WNW 14.0 km/h 33.3 km/h 35% 0.0 mm CLR
20:45 11.8 °C -3.2 °C 1012.6 hPa WSW 14.0 km/h 22.2 km/h 35% 0.0 mm CLR
20:50 11.7 °C -3.3 °C 1012.9 hPa WNW 15.6 km/h 22.2 km/h 35% 0.0 mm CLR
20:55 11.7 °C -3.3 °C 1012.9 hPa WNW 15.6 km/h 29.6 km/h 35% 0.0 mm CLR
21:00 11.7 °C -3.3 °C 1012.9 hPa West 16.1 km/h 25.7 km/h 35% 0.0 mm CLR
21:05 11.6 °C -3.4 °C 1013.0 hPa WNW 16.1 km/h 20.4 km/h 35% 0.0 mm CLR
21:10 11.5 °C -3.4 °C 1013.0 hPa WNW 14.0 km/h 29.6 km/h 35% 0.0 mm CLR
21:15 11.5 °C -3.4 °C 1013.0 hPa SW 14.0 km/h 20.4 km/h 35% 0.0 mm CLR
21:20 11.4 °C -3.9 °C 1013.0 hPa West 16.1 km/h 33.3 km/h 34% 0.0 mm CLR
21:25 11.4 °C -3.9 °C 1013.0 hPa WSW 16.1 km/h 33.3 km/h 34% 0.0 mm CLR
21:30 11.3 °C -3.6 °C 1013.0 hPa West 20.1 km/h 24.5 km/h 35% 0.0 mm CLR
21:35 11.3 °C -3.6 °C 1013.2 hPa West 20.1 km/h 32.3 km/h 35% 0.0 mm CLR
21:40 11.3 °C -4.0 °C 1013.2 hPa WSW 20.1 km/h 53.7 km/h 34% 0.0 mm CLR
21:45 11.3 °C -4.0 °C 1013.2 hPa WNW 20.1 km/h 53.9 km/h 34% 0.0 mm CLR
21:50 11.3 °C -4.0 °C 1013.3 hPa West 26.2 km/h 40.7 km/h 34% 0.0 mm CLR
21:55 11.2 °C -4.1 °C 1013.3 hPa NNW 26.2 km/h 44.4 km/h 34% 0.0 mm CLR
22:00 11.2 °C -4.1 °C 1013.3 hPa West 24.1 km/h 56.3 km/h 34% 0.0 mm CLR
22:05 11.2 °C -4.1 °C 1013.4 hPa West 24.5 km/h 27.8 km/h 34% 0.0 mm CLR
22:10 11.1 °C -4.2 °C 1013.4 hPa West 28.2 km/h 27.8 km/h 34% 0.0 mm CLR
22:15 11.1 °C -4.2 °C 1013.4 hPa WNW 28.2 km/h 25.9 km/h 34% 0.0 mm CLR
22:20 11.1 °C -4.6 °C 1013.8 hPa West 21.7 km/h 46.3 km/h 33% 0.0 mm CLR
22:25 11.1 °C -4.6 °C 1013.8 hPa NW 21.7 km/h 46.3 km/h 33% 0.0 mm CLR
22:30 11.0 °C -5.1 °C 1013.8 hPa West 31.7 km/h 42.6 km/h 32% 0.0 mm CLR
22:35 10.9 °C -4.8 °C 1014.0 hPa West 31.7 km/h 27.8 km/h 33% 0.0 mm CLR
22:40 10.8 °C -4.8 °C 1014.0 hPa West 24.5 km/h 38.9 km/h 33% 0.0 mm CLR
22:45 10.7 °C -4.9 °C 1014.0 hPa NW 24.5 km/h 35.2 km/h 33% 0.0 mm CLR
22:50 10.7 °C -4.9 °C 1014.1 hPa West 22.5 km/h 38.9 km/h 33% 0.0 mm CLR
22:55 10.6 °C -5.1 °C 1014.1 hPa WNW 22.5 km/h 44.4 km/h 33% 0.0 mm CLR
23:00 10.6 °C -5.1 °C 1014.1 hPa WNW 24.1 km/h 51.5 km/h 33% 0.0 mm CLR
23:05 10.6 °C -5.1 °C 1014.1 hPa WNW 23.7 km/h 55.5 km/h 33% 0.0 mm CLR
23:10 10.6 °C -5.1 °C 1014.1 hPa WNW 32.3 km/h 56.5 km/h 33% 0.0 mm CLR
23:15 10.5 °C -5.1 °C 1014.1 hPa West 32.3 km/h 42.6 km/h 33% 0.0 mm CLR
23:20 10.4 °C -5.2 °C 1014.3 hPa WNW 32.8 km/h 37.0 km/h 33% 0.0 mm CLR
23:25 10.4 °C -5.2 °C 1014.3 hPa West 32.8 km/h 38.9 km/h 33% 0.0 mm CLR
23:30 10.3 °C -4.9 °C 1014.3 hPa WNW 27.0 km/h 27.8 km/h 34% 0.0 mm CLR
23:35 10.2 °C -5.0 °C 1014.6 hPa West 27.0 km/h 29.6 km/h 34% 0.0 mm CLR
23:40 10.2 °C -5.0 °C 1014.6 hPa West 20.9 km/h 35.2 km/h 34% 0.0 mm CLR
23:45 10.2 °C -4.6 °C 1014.6 hPa West 20.9 km/h 33.3 km/h 35% 0.0 mm CLR
23:50 10.2 °C -4.6 °C 1014.7 hPa WNW 23.3 km/h 37.0 km/h 35% 0.0 mm CLR
23:55 10.1 °C -4.7 °C 1014.7 hPa NW 23.3 km/h 29.6 km/h 35% 0.0 mm CLR
Murcia-Puente Tocinos, España
Compliments of Weather Underground - 2.75 mb

La estación de MeteoMurcia.com, publica sus datos en los siguientes proyectos:

Weather Underground PWS IMURCIAP2 Meteoclimatic www.awekas.at

W3Counter
Web Analytics